Miscellaneous Local Product
Issued by NWS North Platte, NE

Home | Current Version | Previous Version | Text Only | Print | Product List | Glossary On
Versions: 1 2 3 4 5 6 7 8 9 10 11 12 13 14 15 16 17 18 19 20 21 22 23 24 25 26 27 28 29 30 31 32 33 34 35 36 37 38 39 40 41 42 43 44 45 46 47 48 49 50
000
AXUS43 KLBF 191410
MISLBF


WESTERN AND NORTH CENTRAL NEBRASKA HOURLY WEATHER ROUNDUP
NATIONAL WEATHER SERVICE NORTH PLATTE NE
900 AM CDT THU OCT 19 2017

NOTE: "FAIR" INDICATES FEW OR NO CLOUDS BELOW 12,000 FEET WITH NO
SIGNIFICANT WEATHER AND/OR OBSTRUCTIONS TO VISIBILITY.

NOTE: STATIONS NOT REPORTING VARIABLES SUCH AS SKY/WEATHER OR
PRESSURE ARE PROVIDED BY RAWS AND APRS NETWORKS AND ARE NOT UNDER
NATIONAL WEATHER SERVICE QUALITY CONTROL.

...OBSERVATIONS IN AND NEAR THE EASTERN PANHANDLE OF NEBRASKA...

CITY           SKY/WX    TMP DP  RH WIND       PRES   REMARKS
PINE RIDGE     CLOUDY    51  32  48 SW12G21   29.94R
GORDON         FAIR      49  34  57 SW12G18   29.96S
CHADRON        CLOUDY    45  28  51 CALM      29.93S
ALLIANCE       CLOUDY    38  31  76 CALM      30.00S
SIDNEY         CLOUDY    43  32  65 W8        30.04S
CRESCENT LAKE    N/A     47  37  67 S6          N/A
$$

...OBSERVATIONS IN NORTHERN NEBRASKA AND FAR SOUTHERN SOUTH DAKOTA...

CITY           SKY/WX    TMP DP  RH WIND       PRES   REMARKS
WINNER         FAIR      55  36  48 S25G35    29.93R
VALENTINE      CLOUDY    46  36  68 SW6       29.98S
THEDFORD       CLOUDY    49  37  61 SW5       30.03S
AINSWORTH      CLEAR     47  37  67 S12       30.00F
O`NEILL        CLOUDY    46  39  78 S7        30.03R
ORD            CLOUDY    36  32  85 CALM      30.05R
BROKEN BOW     CLOUDY    39  36  89 CALM      30.05R
VALENTINE NWR    N/A     41  33  73 S8          N/A
HALSEY           N/A     43  33  67 CALM        N/A
BUTTE            N/A     50  36  59 SW10G17     N/A
CHAMBERS         N/A     48  39  72 S3          N/A
EWING            N/A     43  40  91 CALM        N/A
$$

...OBSERVATIONS IN SOUTHWEST NEBRASKA AND FAR NORTHEAST COLORADO...

CITY           SKY/WX    TMP DP  RH WIND       PRES   REMARKS
WRAY           FAIR      37  34  87 W7        30.06S WCI  32
HOLYOKE        FAIR      39  34  81 W7        30.06S WCI  34
IMPERIAL       CLOUDY    38  32  79 SW3       30.06S
OGALLALA       CLOUDY    37  33  88 CALM      30.05S
NORTH PLATTE   CLOUDY    37  35  92 CALM      30.07R
MCCOOK         CLOUDY    40  37  89 CALM      30.06S
LEXINGTON      CLOUDY    38  36  91 CALM      30.07R
STAPLETON        N/A     42  36  79 CALM        N/A
GOTHENBURG       N/A     36  30  80 CALM        N/A
CALLAWAY         N/A     33  31  93 CALM        N/A
$$

...OBSERVATIONS IN CENTRAL LINCOLN COUNTY AREA...

CITY           SKY/WX    TMP DP  RH WIND       PRES   REMARKS
N.P. AIRPORT   CLOUDY    37  35  92 CALM      30.07R
N.P. DOWNTOWN    N/A     39  35  84 CALM        N/A
N.P. SOUTHEAST   N/A     38  33  84 CALM        N/A
N.P. HILLCREST   N/A     41  36  81 CALM        N/A
$$

...SOME OBSERVATIONS FROM AROUND THE REGION...

CITY           SKY/WX    TMP DP  RH WIND       PRES   REMARKS
DENVER         CLOUDY    45  24  43 W6        30.08S
LIMON          CLOUDY    35  30  82 N3        30.11S
ASPEN          CLOUDY    34  18  52 S9        30.22S WCI  27
LARAMIE        CLOUDY    33  17  51 S9        30.15F WCI  25
CASPER         CLOUDY    43  16  33 NW9       30.01F
CHEYENNE       CLOUDY    44  18  35 W13       30.09S
SCOTTSBLUFF    CLOUDY    38  30  73 CALM      30.02R
GRAND ISLAND   SUNNY     44  39  82 CALM      30.07R
OMAHA          MOSUNNY   53  47  79 CALM      30.08S
SIOUX FALLS    CLOUDY    52  35  52 S9        30.04S
PIERRE         CLEAR     49  37  63 SE12      29.87S
RAPID CITY     CLOUDY    48  27  44 SE7       29.87S
BISMARCK       PTCLDY    42  34  73 SE8       29.81R
KANSAS CITY    SUNNY     57  51  80 S8        30.11R
HILL CITY      SUNNY     44  39  82 W3        30.07R HAZE
WICHITA        MOSUNNY   55  49  80 S9        30.09R
DODGE CITY     CLOUDY    49  45  86 S6        30.08R FOG
OKLAHOMA CITY  CLOUDY    55  46  71 S10       30.13R
DALLAS         CLOUDY    62  56  80 E3        30.15R
AMARILLO       CLOUDY    55  44  66 S10       30.09R
$$




USA.gov is the U.S. government's official web portal to all federal, state and local government web resources and services.